Flag for Italy

Past Weather in Assisi, Italy — Yesterday and Last 2 Weeks

Now
82 °F

Warm.


Feels Like: 82 °F
Forecast: 80 / 60 °F
Wind: 3 mph from North

Location: Perugia Airport

Current Time: Jul 11, 2020 at 11:22:27 am

Latest Report: Jul 11, 2020 at 10:50 am


Visibility: N/A

Pressure: 29.98 "Hg

Humidity: 45%

Dew Point: 59 °F

Location of AssisiLocation

Past Weather in Assisi — Graph

°F

Assisi Temperature Yesterday

Maximum temperature yesterday: 93 °F (at 4:50 pm)
Minimum temperature yesterday: 64 °F (at 3:20 am)
Average temperature yesterday: 80 °F

High & Low Weather Summary for the Past Weeks

 TemperatureHumidityPressure
High93 °F (Jul 2, 4:20 pm)100% (Jun 27, 6:20 am)30.09 "Hg (Jun 27, 6:20 am)
Low57 °F (Jul 5, 5:20 am)24% (Jun 27, 3:50 pm)29.71 "Hg (Jul 6, 7:50 pm)
Average76 °F59%29.95 "Hg
* Reported Jun 26 9:20 am — Jul 11 9:50 am, Assisi. Weather by CustomWeather, © 2020

Note: Actual official high and low records may vary slightly from our data, if they occured in-between our weather recording intervals... More about our weather records

Assisi Weather History for the Previous 24 Hours

Scroll right to see more
 ConditionsComfort  
Time TempWeatherWind HumidityBarometerVisibility
9:50 am
Sat, Jul 11
79 °FWarm.2 mph51%29.98 "HgN/A
9:20 am77 °FWarm.2 mph54%29.98 "HgN/A
8:50 am73 °FMild.1 mph61%29.98 "HgN/A
8:20 am72 °FMild.2 mph65%29.98 "HgN/A
7:50 am70 °FMild.2 mph64%29.98 "HgN/A
7:20 am66 °FSunny.2 mph78%29.98 "HgN/A
6:50 am64 °FSunny.3 mph83%29.98 "HgN/A
6:20 am63 °FMild.1 mph88%29.98 "HgN/A
5:50 am63 °FMild.2 mph88%29.98 "HgN/A
5:20 am63 °FMild.2 mph88%29.98 "HgN/A
4:50 am63 °FMild.6 mph94%29.98 "HgN/A
4:20 am63 °FMild.5 mph94%29.98 "HgN/A
3:50 am64 °FMild.6 mph88%29.98 "HgN/A
3:20 am64 °FMild.3 mph83%29.98 "HgN/A
2:50 am66 °FMild.5 mph78%29.98 "HgN/A
2:20 am66 °FMild.5 mph83%29.98 "HgN/A
1:50 am70 °FMild.1 mph69%29.98 "HgN/A
1:20 am72 °FMild.2 mph61%30.01 "HgN/A
12:50 am73 °FMild.2 mph61%29.98 "HgN/A
12:20 am75 °FMild.8 mph54%29.98 "HgN/A
11:50 pm
Fri, Jul 10
75 °FMild.7 mph57%29.98 "HgN/A
11:20 pm77 °FWarm.5 mph51%29.98 "HgN/A
10:50 pm77 °FWarm.3 mph54%29.95 "HgN/A
10:20 pm81 °FWarm.8 mph48%29.95 "HgN/A
9:50 pm82 °FLight rain. Overcast.9 mph42%29.95 "HgN/A
9:20 pm82 °FDrizzle. Overcast.8 mph42%29.92 "HgN/A
8:50 pm82 °FWarm.6 mph45%29.92 "HgN/A
8:20 pm86 °FWarm.5 mph40%29.92 "HgN/A
7:50 pm90 °FHot.5 mph36%29.92 "HgN/A
6:50 pm93 °FExtremely hot.7 mph30%29.92 "HgN/A
6:20 pm93 °FExtremely hot.7 mph30%29.92 "HgN/A
5:50 pm93 °FExtremely hot.5 mph30%29.92 "HgN/A
5:20 pm93 °FExtremely hot.7 mph32%29.92 "HgN/A
4:50 pm93 °FPassing clouds.7 mph34%29.92 "HgN/A
4:20 pm91 °FHot.5 mph34%29.95 "HgN/A
3:50 pm91 °FHot.3 mph36%29.95 "HgN/A
3:20 pm91 °FPassing clouds.3 mph36%29.95 "HgN/A
2:50 pm91 °FHot.8 mph36%29.95 "HgN/A
1:50 pm91 °FHot.7 mph32%29.98 "HgN/A
1:20 pm90 °FHot.7 mph33%29.98 "HgN/A
12:50 pm90 °FHot.6 mph38%29.98 "HgN/A
12:20 pm88 °FPleasantly warm.6 mph38%29.98 "HgN/A
11:50 am88 °FWarm.5 mph43%29.98 "HgN/A
11:20 am86 °FWarm.3 mph43%30.01 "HgN/A
Weather by CustomWeather, © 2020

See weather overview